332  
ASUS44 KJAN 170310  
RWRMS  
 
MISSISSIPPI HOURLY WEATHER ROUNDUP  
NATIONAL WEATHER SERVICE JACKSON MS  
1000 PM CDT SAT OCT 16 2021  
 
NOTE: "FAIR: INDICATES FEW OR NO CLOUDS BELOW 12,000 FEET WITH NO  
SIGNIFICANT WEATHER AND/OR S TO VISIBILITY
.  
 
MSZ001>002-007>008-010>013-018>021-025>028-034>036-170400-  
NORTHWEST MISSISSIPPI  
 
CITY SKY/WX TMP DP RH WIND PRES REMARKS
 
BATESVILLE FAIR 48 48 100 CALM 30.25R  
CLARKSDALE CLEAR 52 48 87 MISG 30.26R  
GREENWOOD CLEAR 51 47 86 CALM 30.25R  
GREENVILLE CLEAR 55 45 68 CALM 30.25R  
OXFORD CLEAR 46 46 100 CALM 30.26R  
TUNICA CLEAR 54 46 76 CALM 30.27R  
WINONA FAIR 49 47 93 CALM 30.25R  

 
 
MSZ003>006-009-014>017-022>024-029>033-037>039-170400-  
NORTHEAST MISSISSIPPI  
 
CITY SKY/WX TMP DP RH WIND PRES REMARKS
 
ABERDEEN FAIR 48 48 100 CALM 30.24R  
COLUMBUS AFB CLEAR 48 45 89 CALM 30.21R  
CORINTH CLEAR 50 46 87 CALM 30.23R  
GOLDN TRIANGLE CLEAR 54 46 74 NW3 30.24R  
TUPELO CLEAR 55 43 63 NW3 30.23R  

 
 
MSZ040-058-170400-  
CENTRAL MISSISSIPPI  
 
CITY SKY/WX TMP DP RH WIND PRES REMARKS
 
JACKSON INTL CLEAR 55 42 61 N6 30.24R  
JACKSON HAWKNS CLEAR 54 45 71 CALM 30.25R  
MERIDIAN KEY CLEAR 52 47 83 CALM 30.23R  
MERIDIAN NAS CLEAR 52 48 86 NW3 30.23R  
RAYMOND FAIR 48 48 100 CALM 30.25R  
VICKSBURG VKS CLEAR 52 52 100 CALM 30.25R  

 
 
MSZ059>079-170400-  
SOUTH MISSISSIPPI  
 
CITY SKY/WX TMP DP RH WIND PRES REMARKS
 
HATTIESBURG CLEAR 57 44 62 NW3 30.22R  
LAUREL CLEAR 55 46 71 N6 30.23R  
MCCOMB CLEAR 56 46 69 N7 30.23R  
NATCHEZ CLEAR 51 50 96 CALM 30.26R  
PINE BELT CLEAR 56 46 69 N8 30.23R  

 
 
MSZ080>082-170400-  
COASTAL MISSISSIPPI  
 
CITY SKY/WX TMP DP RH WIND PRES REMARKS
 
BILOXI CLEAR 62 46 57 N7 30.17R  
PASCAGOULA CLEAR 60 46 59 N7 30.18R  
GULFPORT CLEAR 62 43 49 N8 30.18R  

 
 
LAZ007>009-015>016-023>026-170400-  
NORTHEAST LOUISIANA  
 
CITY SKY/WX TMP DP RH WIND PRES REMARKS
 
TALLULAH/VBURG CLEAR 55 45 68 NW5 30.26R  
VIDALIA FAIR 58 45 60 N3 30.25R  

 
 
 
CLICK HERE TO GO TO PREVIOUS BULLETINS.

The Nexlab MS Page Main Text Page